Location: Kitchener-Waterloo
(43.4500°N, 80.5000°W)
Time: 05:43:54
(UTC-04:00)

ISS - All Passes

Search period start: 04 August 2015 00:00
Search period end: 14 August 2015 00:00
Orbit: 401 x 403 km, 51.6° (Epoch: 03 August)

Date Brightness Start Highest point End Pass type
(mag) Time Alt. Az. Time Alt. Az. Time Alt. Az.
04 Aug - 01:14:16 10° NW 01:16:59 24° NNE 01:19:43 10° ENE visible
04 Aug - 02:50:29 10° WNW 02:53:45 89° NNE 02:57:01 10° ESE night (unlit)
04 Aug - 04:28:25 10° WSW 04:29:47 12° SW 04:31:02 10° SSW night (unlit)
04 Aug - 19:31:56 10° SSE 19:33:39 14° SE 19:35:27 10° E daylight
04 Aug - 21:06:28 10° WSW 21:09:43 78° NNW 21:12:59 10° NE visible
04 Aug - 22:43:51 10° WNW 22:46:32 23° NNW 22:49:12 10° NE visible
05 Aug - 00:21:13 10° NW 00:23:44 20° N 00:26:15 10° ENE visible
05 Aug - 01:57:29 10° NW 02:00:41 51° NNE 02:03:53 10° ESE visible
05 Aug - 03:34:18 10° W 03:36:56 22° SW 03:39:30 10° S night (unlit)
05 Aug - 20:13:30 10° SW 20:16:41 57° SE 20:19:54 10° ENE daylight
05 Aug - 21:50:23 10° W 21:53:17 29° NNW 21:56:12 10° NE visible
05 Aug - 23:28:01 10° NW 23:30:26 19° N 23:32:52 10° NE visible
06 Aug - 01:04:31 10° NW 01:07:32 34° NNE 01:10:33 10° E visible
06 Aug - 02:40:55 10° WNW 02:44:01 41° SW 02:47:05 10° SSE night (unlit)
06 Aug - 19:20:52 10° SSW 19:23:44 30° SE 19:26:39 10° ENE daylight
06 Aug - 20:56:59 10° W 21:00:06 41° NNW 21:03:12 10° NE daylight
06 Aug - 22:34:40 10° NW 22:37:07 19° N 22:39:35 10° NE visible
07 Aug - 00:11:31 10° NW 00:14:18 25° NNE 00:17:06 10° ENE visible
07 Aug - 01:47:45 10° WNW 01:51:01 78° SW 01:54:16 10° SE night (unlit)
07 Aug - 18:28:44 10° S 18:30:50 16° SE 18:32:59 10° E daylight
07 Aug - 20:03:43 10° WSW 20:06:57 67° NNW 20:10:12 10° NE daylight
07 Aug - 21:41:12 10° WNW 21:43:49 22° N 21:46:26 10° NE visible
07 Aug - 23:18:26 10° NW 23:21:01 21° N 23:23:36 10° ENE visible
08 Aug - 00:54:41 10° NW 00:57:56 59° NNE 01:01:09 10° ESE visible
08 Aug - 02:31:43 10° W 02:34:06 19° SW 02:36:27 10° S night (unlit)
08 Aug - 19:10:39 10° SW 19:13:52 68° SE 19:17:07 10° ENE daylight
08 Aug - 20:47:41 10° WNW 20:50:32 27° NNW 20:53:22 10° NE daylight
08 Aug - 22:25:15 10° NW 22:27:42 19° N 22:30:08 10° NE visible
09 Aug - 00:01:41 10° NW 00:04:45 37° NNE 00:07:49 10° E visible
09 Aug - 01:38:09 10° WNW 01:41:10 34° SW 01:44:10 10° SSE night (unlit)
09 Aug - 18:17:52 10° SSW 18:20:52 35° SE 18:23:53 10° ENE daylight
09 Aug - 19:54:13 10° W 19:57:17 37° NNW 20:00:21 10° NE daylight
09 Aug - 21:31:54 10° NW 21:34:21 19° N 21:36:47 10° NE visible
09 Aug - 23:08:40 10° NW 23:11:30 27° NNE 23:14:22 10° ENE visible
10 Aug - 00:44:55 10° WNW 00:48:09 66° SW 00:51:23 10° SE visible
10 Aug - 17:25:32 10° S 17:27:54 19° SE 17:30:20 10° E daylight
10 Aug - 19:00:52 10° WSW 19:04:05 58° NNW 19:07:19 10° NE daylight
10 Aug - 20:38:25 10° WNW 20:41:00 21° N 20:43:34 10° NE daylight
10 Aug - 22:15:34 10° NW 22:18:12 22° N 22:20:49 10° ENE visible
10 Aug - 23:51:48 10° NW 23:55:04 68° NNE 23:58:18 10° ESE visible
11 Aug - 01:29:02 10° W 01:31:10 16° SW 01:33:14 10° S night (unlit)
11 Aug - 16:34:47 10° SE 16:35:00 10° SE 16:35:20 10° SE daylight
11 Aug - 18:07:42 10° SW 18:10:57 80° SSE 18:14:13 10° ENE daylight
11 Aug - 19:44:53 10° WNW 19:47:40 25° NNW 19:50:27 10° NE daylight
11 Aug - 21:22:23 10° NW 21:24:50 19° N 21:27:18 10° NE visible
11 Aug - 22:58:45 10° NW 23:01:52 41° NNE 23:04:59 10° E visible
12 Aug - 00:35:19 10° WNW 00:38:13 29° SW 00:41:05 10° SSE visible
12 Aug - 17:14:48 10° SSW 17:17:53 41° SE 17:20:59 10° ENE daylight
12 Aug - 18:51:21 10° W 18:54:22 33° NNW 18:57:23 10° NE daylight
12 Aug - 20:29:02 10° NW 20:31:28 19° N 20:33:53 10° NE daylight
12 Aug - 22:05:42 10° NW 22:08:36 29° NNE 22:11:31 10° E visible
12 Aug - 23:41:59 10° WNW 23:45:12 56° SW 23:48:23 10° SE visible
13 Aug - 16:22:18 10° S 16:24:52 22° SE 16:27:31 10° E daylight
13 Aug - 17:57:55 10° WSW 18:01:07 51° NNW 18:04:19 10° NE daylight
13 Aug - 19:35:32 10° WNW 19:38:04 20° N 19:40:35 10° NE daylight
13 Aug - 21:12:35 10° NW 21:15:16 23° NNE 21:17:57 10° ENE visible
13 Aug - 22:48:48 10° NW 22:52:04 79° NNE 22:55:19 10° ESE visible
